Weather History for KMDT - March, 2013

Change the Weather History Date:

Wednesday, March 13, 2013

  Actual Average Record
Temperature  
Mean Temperature 38 °F 41 °F  
Max Temperature 46 °F 49 °F 83 °F (1990)
Min Temperature 30 °F 32 °F 8 °F (1896)
Degree Days  
Heating Degree Days 27 24  
Month to date heating degree days 333 342  
Since 1 July heating degree days 4124 4330  
Cooling Degree Days 0 0  
Month to date cooling degree days 0 0  
Year to date cooling degree days 0 0  
Moisture  
Dew Point 24 °F    
Average Humidity 60    
Maximum Humidity 78    
Minimum Humidity 41    
Precipitation  
Precipitation T in 0.11 in 1.95 in (1977)
Month to date precipitation 1.12 1.29  
Year to date precipitation 6.07 6.56  
Snow  
Snow T in 0.20 in 20.30 in (1993)
Month to date snowfall T 3.1  
Since 1 July snowfall 13.3 28.1  
Snow Depth 0.00 in    
Sea Level Pressure  
Sea Level Pressure 29.94 in    
Wind  
Wind Speed 12 mph (WNW)    
Max Wind Speed 29 mph    
Max Gust Speed 35 mph    
Visibility 10 miles    
Events Rain , Snow    
T = Trace of Precipitation, MM = Missing Value Source: NWS Daily Summary

Daily Weather History Graph

Daily Weather History Graph

Search for Another Location

Airport or City:

Trip Planner

Search our weather history database for the weather conditions in past years. The results will help you decide how hot, cold, wet, or windy it might be!

Date:

Astronomy

Mar. 13, 2013 Rise Set
Actual Time 7:21 AM EDT 7:12 PM EDT
Civil Twilight 6:54 AM EDT 7:39 PM EDT
Nautical Twilight 6:22 AM EDT 8:10 PM EDT
Astronomical Twilight 5:51 AM EDT 8:42 PM EDT
Moon 7:59 AM EDT (3/13) 9:26 PM EDT (3/13)
Length of Visible Light 12h 44m
Length of Day
11h 50m
Waxing Crescent, 4% of the Moon is Illuminated
Mar 13
Waxing Crescent
Mar 19
First Quarter
Mar 27
Full
Apr 3
Last Quarter
Apr 10
New

Hourly Weather History & Observations

Time (EDT) Temp. Windchill Dew Point Humidity Pressure Visibility Wind Dir Wind Speed Gust Speed Precip Events Conditions
12:56 AM 39.9 °F 33.4 °F 28.0 °F 63% 29.94 in 10.0 mi NW 10.4 mph - N/A   Mostly Cloudy
1:56 AM 39.9 °F 32.9 °F 27.0 °F 60% 29.94 in 10.0 mi WNW 11.5 mph - N/A   Mostly Cloudy
2:56 AM 37.9 °F 32.7 °F 25.0 °F 60% 29.93 in 10.0 mi WNW 6.9 mph - N/A   Mostly Cloudy
3:56 AM 39.0 °F 31.8 °F 24.1 °F 55% 29.92 in 10.0 mi WNW 11.5 mph - N/A   Mostly Cloudy
4:56 AM 37.9 °F 32.1 °F 24.1 °F 57% 29.92 in 10.0 mi WNW 8.1 mph - N/A   Scattered Clouds
5:56 AM 35.1 °F 32.2 °F 23.0 °F 61% 29.93 in 10.0 mi WNW 3.5 mph - N/A   Scattered Clouds
6:56 AM 33.1 °F - 24.1 °F 70% 29.94 in 10.0 mi Calm Calm - N/A   Clear
7:56 AM 30.9 °F - 25.0 °F 79% 29.94 in 9.0 mi Calm Calm - N/A   Clear
8:56 AM 39.9 °F - 27.0 °F 60% 29.94 in 10.0 mi Calm Calm - N/A   Clear
9:56 AM 42.1 °F 38.4 °F 26.1 °F 53% 29.94 in 10.0 mi West 5.8 mph - N/A   Clear
10:56 AM 43.0 °F 39.5 °F 25.0 °F 49% 29.93 in 10.0 mi WSW 5.8 mph - N/A   Partly Cloudy
11:56 AM 45.0 °F 38.9 °F 25.0 °F 46% 29.91 in 10.0 mi WNW 12.7 mph - N/A   Scattered Clouds
12:56 PM 44.1 °F 39.5 °F 25.0 °F 47% 29.90 in 10.0 mi West 8.1 mph 20.7 mph N/A   Overcast
1:56 PM 41.0 °F 34.7 °F 28.0 °F 60% 29.90 in 10.0 mi West 10.4 mph 23.0 mph 0.00 in Rain Light Rain
2:56 PM 43.0 °F 35.1 °F 24.1 °F 47% 29.88 in 10.0 mi West 17.3 mph - 0.00 in   Overcast
4:56 PM 44.1 °F 37.7 °F 23.0 °F 43% 29.89 in 10.0 mi WNW 12.7 mph - N/A   Mostly Cloudy
5:56 PM 42.1 °F 35.2 °F 27.0 °F 55% 29.91 in 10.0 mi WNW 12.7 mph - 0.00 in   Mostly Cloudy
6:56 PM 39.0 °F 30.6 °F 26.1 °F 60% 29.93 in 10.0 mi NW 15.0 mph 23.0 mph N/A   Mostly Cloudy
7:56 PM 37.9 °F 28.5 °F 23.0 °F 55% 29.96 in 10.0 mi West 17.3 mph - N/A   Scattered Clouds
8:56 PM 36.0 °F 25.6 °F 21.9 °F 57% 29.98 in 10.0 mi WNW 18.4 mph 26.5 mph N/A   Partly Cloudy
9:56 PM 34.0 °F 21.8 °F 21.0 °F 59% 30.00 in 10.0 mi NW 23.0 mph 26.5 mph N/A   Scattered Clouds
10:56 PM 33.1 °F 21.5 °F 17.1 °F 52% 30.01 in 10.0 mi WNW 19.6 mph 28.8 mph N/A   Scattered Clouds
11:56 PM 33.1 °F 21.9 °F 17.1 °F 52% 30.02 in 10.0 mi WNW 18.4 mph 28.8 mph 0.00 in Snow Light Snow